Regional Weather Roundup
Issued by NWS State College, PA

Home | Current Version | Previous Version | Graphics & Text | Print | Product List | Glossary Off
Versions: 1 2 3 4 5 6 7 8 9 10 11 12 13 14 15 16 17 18 19 20 21 22 23 24 25 26 27 28 29 30 31 32 33 34 35 36 37 38 39 40 41 42 43 44 45 46 47 48 49 50

000
ASUS41 KCTP 211103
RWRCTP

REGIONAL WEATHER ROUNDUP
NATIONAL WEATHER SERVICE STATE COLLEGE PA
600 AM EST SUN DEC 21 2014

Note: "fair" indicates few or no clouds below 12,000 feet with no
significant weather and/or obstructions to visibility.

* = STATION THAT DOES NOT REPORT PRECIPITATION /E.G. RAIN...SNOW...ETC/
    THUNDER OR FOG.

PAZ002>004-007>009-013>016-020>023-029>032-211200-
WESTERN PENNSYLVANIA

CITY           SKY/WX    TMP DP  RH WIND       PRES   REMARKS
ERIE           CLOUDY    30  23  75 S6        30.29R
MEADVILLE      CLOUDY    27  22  81 CALM      30.26R HAZE
FRANKLIN*      CLOUDY    27  21  80 CALM      30.27R
NEW CASTLE       N/A     27  24  88 CALM      30.30R
BEAVER COUNTY  NOT AVBL
BUTLER*        CLOUDY    27  23  86 CALM      30.29S
PITTSBURGH INT CLOUDY    27  21  78 CALM      30.28R
PITTSBURGH     CLOUDY    28  19  69 CALM      30.27R
INDIANA*       CLOUDY    27  23  86 CALM      30.30R
LATROBE        CLOUDY    27  25  93 CALM      30.30R
WASHINGTON CO* NOT AVBL
$$

PAZ004>006-010>012-017>019-024>028-033>037-041-042-045-046-049>053-211200-
CENTRAL PENNSYLVANIA

CITY           SKY/WX    TMP DP  RH WIND       PRES   REMARKS
BRADFORD       CLOUDY    23  19  85 W3        30.21R
DUBOIS         CLOUDY    25  22  88 W3        30.22R
CLEARFIELD     CLOUDY    26  20  77 CALM      30.25R
JOHNSTOWN      CLOUDY    23  19  85 CALM      30.19R
ALTOONA        CLOUDY    26  23  88 CALM      30.25R
STATE COLLEGE  CLOUDY    27  21  80 CALM      30.26R
WILLIAMSPORT   CLOUDY    31  22  69 W6        30.29R
SELINSGROVE    CLOUDY    31  22  69 CALM      30.30R
FT INDIANTOWN  PTCLDY    30  22  70 NW3       30.29S
CAPITAL CITY   CLOUDY    28  22  78 CALM      30.31R
HARRISBURG     MOCLDY    28  22  78 NW6       30.30R
YORK           CLOUDY    29  22  75 W3        30.30R
$$

PAZ038>040-043-044-047-048-054-055-060>062-067>071-211200-
EASTERN PENNSYLVANIA

CITY           SKY/WX    TMP DP  RH WIND       PRES   REMARKS
SCRANTON       CLOUDY    29  19  66 NW3       30.26R
MOUNT POCONO   CLOUDY    24  19  81 NW5       30.19R
ALLENTOWN      CLOUDY    31  20  63 NW6       30.29R
QUAKERTOWN*    CLOUDY    28  21  74 CALM      30.29R
READING        CLOUDY    30  23  75 NW6       30.29S
LANCASTER      MOCLDY    27  21  78 W3        30.29S
COATESVILLE    CLOUDY    28  27  93 NW3       30.28R
POTTSTOWN      CLOUDY    29  22  75 CALM      30.31R
BLUE BELL      CLOUDY    32  27  80 CALM      30.29R
DOYLESTOWN     MOCLDY    27  22  81 CALM      30.28R
WILLOW GROVE   NOT AVBL
NORTH PHILA    CLOUDY    32  20  61 NW3       30.32R
PHILADELPHIA   MOCLDY    32  22  66 NW5       30.32R
$$


USA.gov is the U.S. government's official web portal to all federal, state and local government web resources and services.